Location: Warszawa
(52.2500°N, 21.0000°E)
Time: 14:38:19
(UTC+01:00)

Vanguard 2 - Pass Details

Date: 11 October 2023
Orbit: 552 x 2923 km, 32.9° (Epoch: 08 December)

Event Time Altitude Azimuth Distance (km) Brightness Sun altitude
Rises 19:55:44 0° 267° (W) 6,770 13.7 -19.7°
Reaches altitude 10° 20:01:24 10° 257° (WSW) 5,725 12.8 -20.6°
Maximum altitude 20:13:55 26° 210° (SSW) 4,119 11.3 -22.4°
Drops below altitude 10° 20:24:10 10° 161° (SSE) 4,599 11.1 -23.9°
Enters shadow 20:24:23 - 161° (SSE) 4,630 11.1 -23.9°
